Tracking 31027 objects as of 19-Jul-2025
HD Live streaming from Space Station
objects crossing your sky now

GORIZONT 32

Track GORIZONT 32 now!
GORIZONT 32 is classified as:


NORAD ID: 23880
Int'l Code: 1996-034A
Perigee: 35,798.9 km
Apogee: 35,858.4 km
Inclination: 14.4 °
Period: 1,437.9 minutes
Semi major axis: 42199 km
RCS: 17.7827 m2 (large)
Launch date: May 25, 1996
Source: Commonwealth of Independent States (former USSR) (CIS)
Launch site: TYURATAM MISSILE AND SPACE COMPLEX (TTMTR)

Telecommunications; augment television channels available to the people of Siberia.
Your satellite tracking list
STARLINK-30236
Track 1 satellite(s)




NASA's NSSDC Master Catalog

Two Line Element Set (TLE):
1 23880U 96034A   25199.17058490  .00000014  00000-0  00000-0 0  9998
2 23880  14.4061 357.5021 0007048 356.4252 240.2093  1.00147434106683
Source of the keplerian elements: AFSPC